Lid_Strength_Index
2 6 6 7 11 14 15 12 9 9 8 6 5 7 8 7 8 10 3 1 0 0 -0 -0 -1 -1 -1 -1 -1 -1 -1 -1 -1 -1 -1 -1 -2 -2 -1 -2 -2 -2 -2 -2 -1 -1 -1 -1 -1
3 6 7 10 14 17 16 12 10 8 7 5 5 6 7 8 5 5 4 1 0 0 -0 -0 -1 -1 -1 -1 -1 -1 -1 -1 -1 -1 -1 -2 -2 -2 -1 -2 -2 -1 -1 -1 -1 -1 -1 -1 -1
4 7 9 12 17 17 16 14 9 7 6 6 7 5 6 6 4 4 2 1 0 0 -0 -0 -1 -1 -1 -1 -1 -1 -1 -1 -1 -1 -1 -2 -2 -2 -2 -2 -2 -1 -1 -1 -1 -1 -1 -1 -1
7 9 11 13 18 15 14 12 8 8 6 6 6 8 4 2 3 2 1 0 1 0 0 -1 -1 -1 -1 -1 -1 -1 -1 -1 -1 -1 -1 -1 -1 -2 -2 -1 -1 -1 -1 -1 -1 -1 -1 -1 -1
9 12 15 16 18 16 14 12 12 12 9 7 6 8 7 3 1 1 1 1 1 0 0 -0 -1 -1 -1 -1 -1 -1 -1 -1 -1 -1 -1 -1 -1 -2 -2 -2 -1 -1 -1 -1 -1 -2 -2 -3 -3
10 13 16 17 17 14 13 12 12 13 12 7 7 7 6 3 2 2 1 1 0 1 -0 -0 -1 -1 -1 -1 -1 -1 -1 -1 -1 -1 -1 -1 -1 -2 -2 -2 -1 -1 -1 -1 -1 -3 -3 -3 -3
11 14 15 16 16 14 12 11 13 9 8 8 6 8 6 3 2 1 1 1 0 0 0 -0 -0 -1 -1 -1 -1 -1 -1 -1 -1 -1 -1 -1 -1 -2 -2 -2 -2 -1 -1 -1 -2 -3 -3 -3 -2
12 13 15 15 15 14 12 12 12 9 8 4 4 8 8 4 2 1 1 1 1 0 0 -0 0 -0 -0 -0 -1 -1 -1 -1 -1 -1 -1 -1 -1 -1 -2 -2 -2 -2 -1 -1 -2 -2 -3 -2 -2
11 14 16 14 14 13 12 13 11 11 7 5 5 5 4 3 2 2 2 2 2 1 1 0 0 0 0 0 -0 -1 -1 -1 -1 -1 -1 -1 -1 -1 -1 -1 -1 -2 -2 -2 -2 -2 -2 -2 -2
12 14 13 12 12 14 12 13 12 12 8 7 7 4 3 3 3 4 4 4 3 2 1 0 0 -0 -0 -0 -0 0 -0 -0 -0 -0 -0 -0 -0 -0 -1 -1 -1 -2 -2 -2 -2 -2 -2 -1 -1
13 13 12 10 11 12 12 11 12 11 12 11 9 6 4 4 4 4 4 3 3 2 1 1 0 -0 -0 -0 -0 -0 0 -0 -0 -0 -0 -0 -0 -0 -1 -1 -0 -1 -1 -1 -1 -1 -1 0 2
12 11 11 10 10 12 12 12 12 11 9 8 8 5 4 4 4 4 4 3 3 2 1 1 0 0 0 -0 -0 -0 -0 -0 -0 -0 0 -0 -0 -0 -0 -0 -0 -0 -0 -0 -1 0 -1 -1 -0
13 12 11 10 10 11 12 11 11 10 8 7 6 4 5 4 4 3 3 2 2 2 2 1 0 0 0 0 -0 -0 -0 -0 -0 -0 -0 -0 -0 -0 -0 0 0 -0 0 0 0 0 1 1 2
12 12 11 11 11 12 12 11 11 9 9 8 5 5 4 4 4 4 3 3 3 2 2 1 1 0 0 0 0 0 -0 -0 -0 -0 -0 -0 -0 -0 -0 -0 0 0 0 0 1 1 1 1 4
12 13 12 12 12 11 11 11 11 8 9 9 8 5 4 5 4 4 3 3 2 2 1 1 1 0 0 0 0 -0 -0 -0 -0 -0 -0 -0 -0 -0 -0 -0 0 1 0 0 1 1 2 2 4
13 14 16 12 11 11 12 14 10 9 10 9 9 9 5 4 4 3 3 2 2 2 2 1 1 1 0 0 1 0 0 -0 -0 -0 0 -1 -0 -1 -0 0 0 -0 0 1 1 1 2 2 4
15 16 16 13 12 12 12 13 10 9 10 10 9 10 9 5 4 3 3 2 2 2 2 1 1 1 1 1 1 1 0 -0 -0 -0 -0 -0 -1 -1 -0 -0 -0 -0 1 0 2 3 3 3 4
16 16 16 15 12 12 13 13 11 9 10 10 11 9 7 5 5 4 3 2 3 3 3 3 2 1 2 1 1 1 1 -0 -1 -0 0 -1 -1 -1 -0 -0 0 0 1 0 2 3 3 2 3
13 15 15 13 11 13 13 13 11 10 10 10 11 6 6 6 5 4 3 3 4 4 4 4 3 3 2 1 2 1 2 1 0 0 -0 0 -0 -1 -0 0 0 1 1 1 1 2 3 3 4
13 14 14 12 10 12 12 12 11 10 8 8 7 7 7 6 5 4 4 3 3 4 4 4 3 3 2 1 1 1 1 1 0 0 0 0 -0 -0 -0 0 0 1 2 2 1 2 3 3 5
13 14 13 13 11 11 12 13 12 11 8 7 7 7 6 6 6 5 4 3 3 3 3 3 3 2 1 1 1 1 1 1 1 1 1 1 1 1 0 1 0 1 1 2 1 1 2 3 4
14 10 10 11 13 15 12 16 13 11 10 9 8 7 7 6 5 5 6 5 5 4 3 2 1 2 1 1 1 2 2 3 1 1 1 1 1 1 1 1 1 1 1 2 1 0 2 2 3
12 9 10 11 13 15 14 16 15 11 12 10 8 7 6 6 6 6 7 7 6 5 4 4 4 3 3 3 1 2 2 2 2 2 2 1 1 1 1 1 1 2 2 2 1 1 2 2 3
9 11 12 14 15 17 15 16 17 14 12 10 8 7 6 6 6 6 5 5 6 6 5 5 5 4 4 3 3 3 4 4 3 2 2 1 1 1 1 1 1 2 2 2 1 1 1 1 2
11 15 19 19 18 18 14 15 15 11 9 9 9 9 8 7 6 6 6 6 6 6 5 5 5 5 4 5 5 4 3 3 3 2 2 2 2 2 2 1 1 2 2 2 2 2 1 1 2
13 15 18 21 20 18 13 16 15 9 8 7 7 8 8 9 8 8 8 8 6 6 6 6 6 6 5 5 5 5 5 5 5 4 3 1 1 1 1 1 1 1 1 2 2 2 2 1 1
12 15 13 16 16 19 16 14 11 9 9 8 8 9 9 8 8 8 7 6 6 6 6 6 5 6 5 5 6 6 6 6 6 6 5 4 3 2 0 0 1 0 0 0 1 1 1 1 1
11 10 16 15 21 22 18 17 17 13 11 9 9 8 8 8 7 7 7 8 7 6 6 6 6 7 6 7 6 6 6 6 6 5 5 3 2 2 0 0 0 0 0 0 1 1 1 1 1
12 14 14 14 16 20 21 18 11 12 10 10 8 7 7 7 6 6 6 6 7 7 6 6 6 6 7 7 7 7 7 6 5 5 5 3 3 2 1 0 0 0 0 0 1 1 1 2 2
11 13 13 17 18 15 17 17 10 10 9 8 8 7 6 5 6 5 5 5 6 7 6 6 6 7 7 6 7 6 7 6 6 6 6 5 4 3 2 1 0 0 0 0 1 1 1 1 2